SOMP2

Last updated on Tue Aug 15 2017 00:15:05 GMT+0000 (Coordinated Universal Time)

1 42701U 98067LJ 17226.83114320 .00008525 00000-0 12323-3 0 9998 2 42701 51.6400 104.7720 0006673 175.2511 184.8545 15.56817723 14068

Satellite not in orbit

SOMP2